Detroit, MI

4:38 AM EST on February 10, 2016 (GMT -0500)
Detroit City

Weather History for KDET - March, 2013

Change the Weather History Date:

Friday, March 22, 2013

  Actual Average Record
Temperature  
Mean Temperature 32 °F -  
Max Temperature 39 °F 44 °F 82 °F (2012)
Min Temperature 26 °F 29 °F 10 °F (1959)
Degree Days  
Heating Degree Days 32    
Moisture  
Dew Point 18 °F    
Average Humidity 59    
Maximum Humidity 76    
Minimum Humidity 45    
Precipitation  
Precipitation 0.00 in - - ()
Sea Level Pressure  
Sea Level Pressure 29.98 in    
Wind  
Wind Speed 9 mph (WNW)    
Max Wind Speed 14 mph    
Max Gust Speed 20 mph    
Visibility 10 miles    
Events      
Averages and records for this station are not official NWS values.
T = Trace of Precipitation, MM = Missing Value Source: NWS Daily Summary

Daily Weather History Graph

Daily Weather History Graph

Search for Another Location

Airport or City:

Trip Planner

Search our weather history database for the weather conditions in past years. The results will help you decide how hot, cold, wet, or windy it might be!

Date:

Astronomy

Mar. 22, 2013 Rise Set
Actual Time 7:31 AM EDT 7:46 PM EDT
Civil Twilight 7:03 AM EDT 8:14 PM EDT
Nautical Twilight 6:30 AM EDT 8:47 PM EDT
Astronomical Twilight 5:56 AM EDT 9:21 PM EDT
Moon 3:08 PM EDT (3/22) 4:36 AM EDT (3/22)
Length of Visible Light 13h 11m
Length of Day
12h 15m
Waxing Gibbous, 77% of the Moon is Illuminated
Mar 22
Waxing Gibbous
Mar 27
Full
Apr 3
Last Quarter
Apr 10
New
Apr 18
First Quarter

Hourly Weather History & Observations

Time (EDT) Temp. Windchill Dew Point Humidity Pressure Visibility Wind Dir Wind Speed Gust Speed Precip Events Conditions
12:53 AM 28.0 °F 20.8 °F 19.0 °F 69% 29.93 in 10.0 mi WNW 6.9 mph - N/A   Overcast
1:53 AM 28.0 °F 18.1 °F 18.0 °F 66% 29.93 in 10.0 mi WNW 11.5 mph 17.3 mph N/A   Overcast
2:53 AM 27.0 °F 17.3 °F 17.1 °F 66% 29.94 in 10.0 mi WNW 10.4 mph 16.1 mph N/A   Overcast
3:53 AM 27.0 °F 18.0 °F 15.1 °F 61% 29.94 in 10.0 mi NW 9.2 mph 19.6 mph N/A   Overcast
4:29 AM 26.6 °F 18.2 °F 15.8 °F 64% 29.92 in 10.0 mi NW 8.1 mph 19.6 mph N/A   Overcast
4:53 AM 27.0 °F 18.0 °F 16.0 °F 63% 29.95 in 10.0 mi NW 9.2 mph 18.4 mph N/A   Overcast
5:53 AM 27.0 °F 15.6 °F 16.0 °F 63% 29.95 in 10.0 mi NW 13.8 mph 17.3 mph N/A   Overcast
6:53 AM 26.1 °F 16.8 °F 15.1 °F 63% 29.97 in 10.0 mi NW 9.2 mph 18.4 mph N/A   Overcast
7:53 AM 26.1 °F 16.8 °F 16.0 °F 66% 29.99 in 10.0 mi NW 9.2 mph - N/A   Overcast
8:53 AM 27.0 °F 16.7 °F 16.0 °F 63% 29.99 in 10.0 mi NW 11.5 mph 18.4 mph N/A   Overcast
9:53 AM 28.0 °F 18.1 °F 16.0 °F 61% 29.99 in 10.0 mi NNW 11.5 mph - N/A   Overcast
10:53 AM 28.0 °F 20.0 °F 17.1 °F 63% 29.99 in 10.0 mi NW 8.1 mph - N/A   Overcast
11:53 AM 30.0 °F 21.7 °F 17.1 °F 59% 29.99 in 10.0 mi NW 9.2 mph - N/A   Overcast
12:31 PM 30.2 °F 24.3 °F 17.6 °F 60% 29.97 in 10.0 mi West 5.8 mph - N/A   Overcast
12:53 PM 33.1 °F 24.9 °F 18.0 °F 54% 29.99 in 10.0 mi West 10.4 mph 16.1 mph N/A   Overcast
1:53 PM 34.0 °F 26.0 °F 19.0 °F 54% 29.99 in 10.0 mi West 10.4 mph - N/A   Overcast
2:53 PM 35.1 °F 27.4 °F 19.0 °F 52% 29.99 in 10.0 mi WNW 10.4 mph 19.6 mph N/A   Overcast
3:53 PM 37.0 °F 29.3 °F 19.9 °F 50% 29.97 in 10.0 mi WNW 11.5 mph - N/A   Clear
4:53 PM 37.9 °F 30.5 °F 19.9 °F 48% 29.96 in 10.0 mi West 11.5 mph - N/A   Clear
5:53 PM 39.0 °F 33.4 °F 19.9 °F 46% 29.96 in 10.0 mi WNW 8.1 mph - N/A   Clear
6:53 PM 39.0 °F 33.4 °F 19.0 °F 45% 29.98 in 10.0 mi WNW 8.1 mph - N/A   Clear
7:53 PM 37.0 °F 33.3 °F 19.0 °F 48% 29.99 in 10.0 mi WNW 4.6 mph - N/A   Clear
8:53 PM 35.1 °F - 19.0 °F 52% 30.01 in 10.0 mi Calm Calm - N/A   Clear
9:53 PM 33.1 °F - 19.9 °F 59% 30.03 in 10.0 mi Calm Calm - N/A   Clear
10:53 PM 30.9 °F - 24.1 °F 76% 30.04 in 10.0 mi Calm Calm - N/A   Overcast
11:53 PM 30.0 °F - 23.0 °F 75% 30.04 in 10.0 mi Calm Calm - N/A   Scattered Clouds